Time,TemperatureF,DewpointF,PressureIn,WindDirection,WindDirectionDegrees,WindSpeedMPH,WindSpeedGustMPH,Humidity,HourlyPrecipIn,Conditions,Clouds,dailyrainin,SoftwareType,DateUTC
2013-08-18 00:00:00,62.7,62.4,30.21,NNE,16,1.0,5.0,99,0.06,RA,,0.00,WeatherDisplay:10.37,2013-08-18 04:00:00,
2013-08-18 00:15:00,62.7,62.4,30.20,NNE,22,0.0,0.0,99,0.08,RA,,0.08,WeatherDisplay:10.37,2013-08-18 04:15:00,
2013-08-18 00:30:00,62.7,62.1,30.20,NNE,22,0.0,0.0,98,0.03,-RA,,0.11,WeatherDisplay:10.37,2013-08-18 04:30:00,
2013-08-18 00:45:00,62.6,62.3,30.20,NNE,22,0.0,0.0,99,0.01,-RA,,0.12,WeatherDisplay:10.37,2013-08-18 04:45:00,
2013-08-18 01:00:00,62.6,62.3,30.20,North,1,0.0,0.0,99,0.04,-RA,,0.16,WeatherDisplay:10.37,2013-08-18 05:00:00,
2013-08-18 01:15:00,62.5,62.2,30.20,NNW,342,0.0,0.0,99,0.03,-RA,,0.19,WeatherDisplay:10.37,2013-08-18 05:15:00,
2013-08-18 01:30:00,62.4,62.1,30.20,NNW,342,0.0,0.0,99,0.02,-RA,,0.21,WeatherDisplay:10.37,2013-08-18 05:30:00,
2013-08-18 01:45:00,62.5,61.9,30.20,NNW,342,0.0,0.0,98,0.01,-RA,,0.22,WeatherDisplay:10.37,2013-08-18 05:45:00,
2013-08-18 02:00:00,62.5,62.2,30.20,NNW,342,0.0,0.0,99,0.00,-RA,,0.22,WeatherDisplay:10.37,2013-08-18 06:00:00,
2013-08-18 02:15:00,62.5,62.2,30.19,NNW,342,0.0,0.0,99,0.01,-RA,,0.23,WeatherDisplay:10.37,2013-08-18 06:15:00,
2013-08-18 02:30:00,62.6,62.3,30.18,NNW,342,0.0,0.0,99,0.00,-RA,,0.23,WeatherDisplay:10.37,2013-08-18 06:30:00,
2013-08-18 02:45:00,62.6,62.3,30.18,NNW,342,0.0,0.0,99,0.00,-RA,,0.23,WeatherDisplay:10.37,2013-08-18 06:45:00,
2013-08-18 03:00:00,62.6,62.3,30.19,NNW,342,0.0,0.0,99,0.01,-RA,,0.24,WeatherDisplay:10.37,2013-08-18 07:00:00,
2013-08-18 03:15:00,62.7,62.4,30.19,NNW,342,0.0,0.0,99,0.00,-RA,,0.24,WeatherDisplay:10.37,2013-08-18 07:15:00,
2013-08-18 03:30:00,62.7,62.4,30.19,NNW,342,0.0,0.0,99,0.00,OVC,,0.24,WeatherDisplay:10.37,2013-08-18 07:30:00,
2013-08-18 03:45:00,62.5,62.2,30.19,NNW,342,0.0,0.0,99,0.00,OVC,,0.24,WeatherDisplay:10.37,2013-08-18 07:45:00,
2013-08-18 04:00:00,62.4,62.1,30.19,NNW,342,0.0,0.0,99,0.00,OVC,,0.24,WeatherDisplay:10.37,2013-08-18 08:00:00,
2013-08-18 04:15:00,62.4,62.1,30.19,NNW,342,0.0,0.0,99,0.00,OVC,,0.24,WeatherDisplay:10.37,2013-08-18 08:15:00,
2013-08-18 04:30:00,62.4,62.2,30.19,NNW,342,0.0,0.0,99,0.00,OVC,,0.24,WeatherDisplay:10.37,2013-08-18 08:30:00,
2013-08-18 04:45:00,62.5,62.2,30.19,NNW,342,0.0,0.0,99,0.00,OVC,,0.24,WeatherDisplay:10.37,2013-08-18 08:45:00,
2013-08-18 05:00:00,62.7,62.4,30.19,NNW,342,0.0,0.0,99,0.00,OVC,,0.24,WeatherDisplay:10.37,2013-08-18 09:00:00,
2013-08-18 05:15:00,62.8,62.5,30.19,NNW,342,0.0,0.0,99,0.00,OVC,,0.24,WeatherDisplay:10.37,2013-08-18 09:15:00,
2013-08-18 05:30:00,62.8,62.5,30.19,NNW,342,0.0,0.0,99,0.00,OVC,,0.24,WeatherDisplay:10.37,2013-08-18 09:30:00,
2013-08-18 05:45:00,62.8,62.5,30.20,NNW,342,0.0,0.0,99,0.00,OVC,,0.24,WeatherDisplay:10.37,2013-08-18 09:45:00,
2013-08-18 06:00:00,63.0,62.7,30.20,NNW,342,0.0,0.0,99,0.00,OVC,,0.24,WeatherDisplay:10.37,2013-08-18 10:00:00,
2013-08-18 06:15:00,63.0,62.7,30.20,NNW,342,0.0,0.0,99,0.00,OVC,,0.24,WeatherDisplay:10.37,2013-08-18 10:15:00,
2013-08-18 06:30:00,63.0,62.7,30.21,NNW,342,0.0,0.0,99,0.00,OVC,,0.24,WeatherDisplay:10.37,2013-08-18 10:30:00,
2013-08-18 06:45:00,63.0,62.7,30.22,NNW,342,0.0,0.0,99,0.00,OVC,,0.24,WeatherDisplay:10.37,2013-08-18 10:45:00,
2013-08-18 07:00:00,63.1,62.8,30.23,NNW,342,0.0,0.0,99,0.00,OVC,,0.24,WeatherDisplay:10.37,2013-08-18 11:00:00,
2013-08-18 07:15:00,63.1,62.8,30.23,NNW,342,0.0,0.0,99,0.00,OVC,,0.24,WeatherDisplay:10.37,2013-08-18 11:15:00,
2013-08-18 07:30:00,63.2,62.9,30.23,NNW,342,0.0,0.0,99,0.00,OVC,,0.24,WeatherDisplay:10.37,2013-08-18 11:30:00,
2013-08-18 07:45:00,63.4,63.1,30.23,NNW,342,0.0,0.0,99,0.00,OVC,,0.24,WeatherDisplay:10.37,2013-08-18 11:45:00,
2013-08-18 08:00:00,63.5,63.2,30.24,NNW,342,0.0,0.0,99,0.00,OVC,,0.24,WeatherDisplay:10.37,2013-08-18 12:00:00,
2013-08-18 08:15:00,63.7,63.4,30.24,NNW,342,0.0,0.0,99,0.00,OVC,,0.24,WeatherDisplay:10.37,2013-08-18 12:15:00,
2013-08-18 08:30:00,63.7,63.5,30.24,NNW,342,0.0,0.0,99,0.00,OVC,,0.24,WeatherDisplay:10.37,2013-08-18 12:30:00,
2013-08-18 08:45:00,63.7,63.4,30.25,NNW,336,0.0,0.0,99,0.00,OVC,,0.24,WeatherDisplay:10.37,2013-08-18 12:45:00,
2013-08-18 09:00:00,64.3,64.0,30.25,NW,321,0.0,3.0,99,0.00,OVC,,0.24,WeatherDisplay:10.37,2013-08-18 13:00:00,
2013-08-18 09:15:00,64.4,64.2,30.25,NNW,333,0.0,5.0,99,0.00,OVC,,0.24,WeatherDisplay:10.37,2013-08-18 13:15:00,
2013-08-18 09:30:00,64.8,64.5,30.25,NNW,332,3.0,6.0,99,0.00,OVC,,0.24,WeatherDisplay:10.37,2013-08-18 13:30:00,
2013-08-18 09:45:00,64.9,64.6,30.25,North,349,0.0,7.0,99,0.00,OVC,,0.24,WeatherDisplay:10.37,2013-08-18 13:45:00,
2013-08-18 10:00:00,65.1,64.8,30.25,North,3,0.0,4.0,99,0.00,OVC,,0.24,WeatherDisplay:10.37,2013-08-18 14:00:00,
2013-08-18 10:15:00,65.4,64.8,30.25,North,0,0.0,0.0,98,0.00,OVC,,0.24,WeatherDisplay:10.37,2013-08-18 14:15:00,
2013-08-18 10:30:00,65.9,65.3,30.26,North,5,0.0,0.0,98,0.00,OVC,,0.24,WeatherDisplay:10.37,2013-08-18 14:30:00,
2013-08-18 10:45:00,65.9,64.8,30.27,North,3,0.0,3.0,96,0.00,OVC,,0.24,WeatherDisplay:10.37,2013-08-18 14:45:00,
2013-08-18 11:00:00,66.3,64.8,30.27,North,353,0.0,0.0,95,0.00,OVC,,0.24,WeatherDisplay:10.37,2013-08-18 15:00:00,
2013-08-18 11:15:00,66.9,64.8,30.28,North,349,0.0,0.0,93,0.00,OVC,,0.24,WeatherDisplay:10.37,2013-08-18 15:15:00,
2013-08-18 11:30:00,68.0,65.9,30.28,NNW,333,0.0,0.0,93,0.00,OVC,,0.24,WeatherDisplay:10.37,2013-08-18 15:30:00,
2013-08-18 11:45:00,68.7,65.3,30.28,NNW,333,0.0,0.0,89,0.00,OVC,,0.24,WeatherDisplay:10.37,2013-08-18 15:45:00,
2013-08-18 12:00:00,69.6,66.5,30.28,NNW,333,0.0,0.0,90,0.00,OVC,,0.24,WeatherDisplay:10.37,2013-08-18 16:00:00,
2013-08-18 12:15:00,69.6,66.2,30.27,NNW,334,0.0,0.0,89,0.00,OVC,,0.24,WeatherDisplay:10.37,2013-08-18 16:15:00,
2013-08-18 12:30:00,69.7,65.3,30.27,NNW,334,0.0,0.0,86,0.00,OVC,,0.24,WeatherDisplay:10.37,2013-08-18 16:30:00,
2013-08-18 12:45:00,70.2,66.4,30.25,NNW,341,0.0,5.0,88,0.00,OVC,,0.24,WeatherDisplay:10.37,2013-08-18 16:45:00,
2013-08-18 13:00:00,70.7,65.2,30.26,NNW,327,0.0,2.0,83,0.00,OVC,,0.24,WeatherDisplay:10.37,2013-08-18 17:00:00,
2013-08-18 13:15:00,70.5,66.1,30.25,North,349,0.0,4.0,86,0.00,OVC,,0.24,WeatherDisplay:10.37,2013-08-18 17:15:00,
2013-08-18 13:30:00,72.5,67.4,30.24,North,354,0.0,0.0,84,0.00,OVC,,0.24,WeatherDisplay:10.37,2013-08-18 17:30:00,
2013-08-18 13:45:00,72.8,66.6,30.25,NE,37,0.0,5.0,81,0.00,OVC,,0.24,WeatherDisplay:10.37,2013-08-18 17:45:00,
2013-08-18 14:00:00,73.2,66.7,30.25,NNE,19,0.0,1.0,80,0.00,OVC,,0.24,WeatherDisplay:10.37,2013-08-18 18:00:00,
2013-08-18 14:15:00,72.4,66.2,30.24,North,352,0.0,1.0,81,0.00,OVC,,0.24,WeatherDisplay:10.37,2013-08-18 18:15:00,
2013-08-18 14:30:00,73.3,67.5,30.24,NNW,336,0.0,1.0,82,0.00,OVC,,0.24,WeatherDisplay:10.37,2013-08-18 18:30:00,
2013-08-18 14:45:00,74.6,68.0,30.24,NW,310,0.0,0.0,80,0.00,OVC,,0.24,WeatherDisplay:10.37,2013-08-18 18:45:00,
2013-08-18 15:00:00,74.9,68.3,30.23,North,9,0.0,0.0,80,0.00,OVC,,0.24,WeatherDisplay:10.37,2013-08-18 19:00:00,
2013-08-18 15:15:00,75.5,67.8,30.23,NNE,26,0.0,0.0,77,0.00,OVC,,0.24,WeatherDisplay:10.37,2013-08-18 19:15:00,
2013-08-18 15:30:00,75.4,68.1,30.22,NW,323,0.0,0.0,78,0.00,OVC,,0.24,WeatherDisplay:10.37,2013-08-18 19:30:00,
2013-08-18 15:45:00,75.1,67.8,30.21,NNW,346,0.0,0.0,78,0.00,OVC,,0.24,WeatherDisplay:10.37,2013-08-18 19:45:00,
2013-08-18 16:00:00,74.9,67.2,30.21,NNE,31,0.0,0.0,77,0.00,OVC,,0.24,WeatherDisplay:10.37,2013-08-18 20:00:00,
2013-08-18 16:15:00,75.3,67.2,30.21,NNE,31,0.0,0.0,76,0.00,OVC,,0.24,WeatherDisplay:10.37,2013-08-18 20:15:00,
2013-08-18 16:30:00,75.5,67.8,30.21,North,0,0.0,0.0,77,0.00,OVC,,0.24,WeatherDisplay:10.37,2013-08-18 20:30:00,
2013-08-18 16:45:00,75.3,68.0,30.20,North,0,0.0,0.0,78,0.00,OVC,,0.24,WeatherDisplay:10.37,2013-08-18 20:45:00,
2013-08-18 17:00:00,75.5,68.2,30.20,North,0,0.0,0.0,78,0.00,OVC,,0.24,WeatherDisplay:10.37,2013-08-18 21:00:00,
2013-08-18 17:15:00,75.3,67.6,30.20,North,0,0.0,0.0,77,0.00,OVC,,0.24,WeatherDisplay:10.37,2013-08-18 21:15:00,
2013-08-18 17:30:00,75.8,67.7,30.20,North,0,0.0,0.0,76,0.00,OVC,,0.24,WeatherDisplay:10.37,2013-08-18 21:30:00,
2013-08-18 17:45:00,76.1,68.7,30.20,North,0,0.0,0.0,78,0.01,OVC,,0.25,WeatherDisplay:10.37,2013-08-18 21:45:00,
2013-08-18 18:00:00,75.7,67.6,30.20,North,0,0.0,0.0,76,0.00,OVC,,0.25,WeatherDisplay:10.37,2013-08-18 22:00:00,
2013-08-18 18:15:00,75.9,67.8,30.20,North,0,0.0,0.0,76,0.00,OVC,,0.25,WeatherDisplay:10.37,2013-08-18 22:15:00,
2013-08-18 18:30:00,75.7,69.1,30.20,North,0,0.0,0.0,80,0.00,OVC,,0.25,WeatherDisplay:10.37,2013-08-18 22:30:00,
2013-08-18 18:45:00,74.8,67.8,30.20,North,2,0.0,0.0,79,0.00,OVC,,0.25,WeatherDisplay:10.37,2013-08-18 22:45:00,
2013-08-18 19:00:00,74.2,68.0,30.20,North,2,0.0,0.0,81,0.00,OVC,,0.25,WeatherDisplay:10.37,2013-08-18 23:00:00,
2013-08-18 19:15:00,73.5,67.7,30.20,ENE,60,0.0,5.0,82,0.00,OVC,,0.25,WeatherDisplay:10.37,2013-08-18 23:15:00,
2013-08-18 19:30:00,72.9,68.1,30.20,ENE,57,0.0,0.0,85,0.00,BKN,,0.25,WeatherDisplay:10.37,2013-08-18 23:30:00,
2013-08-18 19:45:00,72.0,67.6,30.21,ENE,59,0.0,2.0,86,0.00,BKN,,0.25,WeatherDisplay:10.37,2013-08-18 23:45:00,
2013-08-18 20:00:00,71.3,67.2,30.21,NE,49,0.0,4.0,87,0.00,BKN,,0.25,WeatherDisplay:10.37,2013-08-19 00:00:00,
2013-08-18 20:15:00,70.6,66.9,30.22,NE,53,0.0,0.0,88,0.00,BKN,,0.25,WeatherDisplay:10.37,2013-08-19 00:15:00,
2013-08-18 20:30:00,70.0,66.6,30.22,NE,53,0.0,0.0,89,0.00,OVC,,0.25,WeatherDisplay:10.37,2013-08-19 00:30:00,
2013-08-18 20:45:00,69.4,66.3,30.22,NE,53,0.0,0.0,90,0.00,OVC,,0.25,WeatherDisplay:10.37,2013-08-19 00:45:00,
2013-08-18 21:00:00,68.9,66.5,30.22,NE,53,0.0,0.0,92,0.00,OVC,,0.25,WeatherDisplay:10.37,2013-08-19 01:00:00,
2013-08-18 21:15:00,68.6,66.2,30.23,NE,53,0.0,0.0,92,0.00,OVC,,0.25,WeatherDisplay:10.37,2013-08-19 01:15:00,
2013-08-18 21:30:00,68.5,66.4,30.24,NE,53,0.0,0.0,93,0.00,FEW,,0.25,WeatherDisplay:10.37,2013-08-19 01:30:00,
2013-08-18 21:45:00,68.4,66.0,30.24,NNE,33,0.0,0.0,92,0.00,FEW,,0.25,WeatherDisplay:10.37,2013-08-19 01:45:00,
2013-08-18 22:00:00,68.3,66.2,30.24,NNE,33,0.0,0.0,93,0.00,FEW,,0.25,WeatherDisplay:10.37,2013-08-19 02:00:00,
2013-08-18 22:15:00,68.2,66.1,30.25,NE,52,1.0,3.0,93,0.00,FEW,,0.25,WeatherDisplay:10.37,2013-08-19 02:15:00,
2013-08-18 22:30:00,68.0,65.9,30.25,NE,39,0.0,1.0,93,0.00,FEW,,0.25,WeatherDisplay:10.37,2013-08-19 02:30:00,
2013-08-18 22:45:00,67.9,65.5,30.25,ENE,62,2.0,6.0,92,0.00,FEW,,0.25,WeatherDisplay:10.37,2013-08-19 02:45:00,
2013-08-18 23:00:00,67.8,65.7,30.25,ENE,67,1.0,5.0,93,0.00,FEW,,0.25,WeatherDisplay:10.37,2013-08-19 03:00:00,
2013-08-18 23:15:00,67.5,65.1,30.25,ENE,58,0.0,0.0,92,0.00,FEW,,0.25,WeatherDisplay:10.37,2013-08-19 03:15:00,
2013-08-18 23:30:00,67.3,65.5,30.24,ENE,58,0.0,0.0,94,0.00,OVC,,0.25,WeatherDisplay:10.37,2013-08-19 03:30:00,
2013-08-18 23:45:00,67.0,65.2,30.24,ENE,58,0.0,0.0,94,0.00,OVC,,0.25,WeatherDisplay:10.37,2013-08-19 03:45:00,